Probability
0 0 0 0 0 0 0 0 0 0 0 0 0 0 0 0 0 0 0 0 0 0 0 0 0 0 0 0 0 0 0 0 0 0 0 0 0 0 0 0 0 0 0 0
0 0 0 0 0 0 0 0 0 0 0 0 0 0 0 0 0 0 0 0 0 0 0 0 0 0 0 0 0 0 0 0 0 0 0 0 0 0 0 0 0 0 0 0
0 0 0 0 0 0 0 0 0 0 0 0 0 0 0 0 0 0 0 0 0 0 0 0 0 0 0 0 0 0 0 0 0 0 0 0 0 0 0 0 0 0 0 0
0 0 0 0 0 0 0 0 0 0 0 0 0 0 0 0 0 0 0 0 0 0 0 0 0 0 0 0 0 0 0 0 0 0 0 0 0 0 0 0 0 0 0 0
0 0 0 0 0 0 0 0 0 0 0 0 0 0 0 0 0 0 0 0 0 0 0 0 0 0 0 0 0 0 0 0 0 0 0 0 0 0 0 0 0 0 0 0
0 0 0 0 0 0 0 0 0 0 0 0 0 0 0 0 0 0 0 0 0 0 0 0 0 0 0 0 0 0 0 0 0 0 0 0 0 0 0 0 0 0 0 0
0 0 0 0 0 0 0 0 0 0 0 0 0 0 0 0 0 0 0 0 0 0 0 0 0 0 0 0 0 0 0 0 0 0 0 0 0 0 0 0 0 0 0 0
0 0 0 0 0 0 0 0 0 0 0 0 0 0 0 0 0 0 0 0 0 0 0 0 0 0 0 0 0 0 0 0 0 0 0 0 0 0 0 0 0 0 0 0
0 0 0 0 0 0 0 0 0 0 0 0 0 0 0 0 0 0 0 0 0 0 0 0 0 0 0 0 0 0 0 0 0 0 0 0 0 0 0 0 0 0 0 0
0 0 0 0 0 0 0 0 0 0 0 0 0 0 0 0 0 0 0 0 0 0 0 0 0 0 0 0 0 0 0 0 0 0 0 0 0 0 0 0 0 0 0 0
0 0 0 0 0 0 0 0 0 0 0 0 0 0 0 0 0 0 0 0 0 0 0 0 0 0 0 0 0 0 0 0 0 0 0 0 0 0 0 0 0 0 0 0
0 0 0 0 0 0 0 0 0 0 0 0 0 0 0 0 0 0 0 0 0 0 0 0 0 0 0 0 0 0 0 0 0 0 0 0 0 0 0 0 0 0 0 0
0 0 0 0 0 0 0 0 0 0 0 0 0 0 0 0 0 0 0 0 0 0 0 0 0 0 0 0 0 0 0 0 0 0 0 0 0 0 0 0 0 0 0 0
0 0 0 0 0 0 0 0 0 0 0 0 0 0 0 0 0 0 0 0 0 0 0 0 0 0 0 0 0 0 0 0 0 0 0 0 0 0 0 0 0 0 0 0
0 0 0 0 0 0 0 0 0 0 0 0 0 0 0 0 0 0 0 0 0 0 0 0 0 0 0 0 0 0 0 0 0 0 0 0 0 0 0 0 0 0 0 0
0 0 0 0 0 0 0 0 0 0 0 0 0 0 0 0 0 0 0 0 0 0 0 0 0 0 0 0 0 0 0 0 0 0 0 0 0 0 0 0 0 0 0 0
0 0 0 0 0 0 0 0 0 0 0 0 0 0 0 0 0 0 0 0 0 0 0 0 0 0 0 0 0 0 0 0 0 0 0 0 0 0 0 0 0 0 0 0
0 0 0 0 0 0 0 0 0 0 0 0 0 0 0 0 0 0 0 0 0 0 0 0 0 0 0 0 0 0 0 0 0 0 0 0 0 0 0 0 0 0 0 0
0 0 0 0 0 0 0 0 0 0 0 0 0 0 0 0 0 0 0 0 0 0 0 0 0 0 0 0 0 0 0 0 0 0 0 0 0 0 0 0 0 0 0 0
0 0 0 0 0 0 0 0 0 0 0 0 0 0 0 0 0 0 0 0 0 0 0 0 0 0 0 0 0 0 0 0 0 0 0 0 0 0 0 0 0 0 0 0
0 0 0 0 0 0 0 0 0 0 0 0 0 0 0 0 0 0 0 0 0 0 0 0 0 0 0 0 0 0 0 0 0 0 0 0 0 0 0 0 0 0 0 0
0 0 0 0 0 0 0 0 0 0 0 0 0 0 0 0 0 0 0 0 0 0 0 0 0 0 0 0 0 0 0 0 0 0 0 0 0 0 0 0 0 0 0 0
0 0 0 0 0 0 0 0 0 0 0 0 0 0 0 0 0 0 0 0 0 0 0 0 0 0 0 0 0 0 0 0 0 0 0 0 0 0 0 0 0 0 0 0
0 0 0 0 0 0 0 0 0 0 0 0 0 0 0 0 0 0 0 0 0 0 0 0 0 0 0 0 0 0 0 0 0 0 0 0 0 0 0 0 0 0 0 0
0 0 0 0 0 0 0 0 0 0 0 0 0 0 0 0 0 0 0 0 0 0 0 0 0 0 0 0 0 0 0 0 0 0 0 0 0 0 0 0 0 0 0 0
0 0 0 0 0 0 0 0 0 0 0 0 0 0 0 0 0 0 0 0 0 0 0 0 0 0 0 0 0 0 0 0 0 0 0 0 0 0 0 0 0 0 0 0
Wind_Speed
2 3 4 7 7 4 2 3 5 7 4 3 8 13 15 8 7 9 9 8 8 7 3 2 2 3 4 4 5 5 6 5 5 3 3 3 2 2 1 1 2 2 2 2
3 4 8 4 3 3 3 3 6 7 3 3 7 12 12 8 8 10 11 11 11 7 4 4 3 3 3 4 5 5 6 5 5 4 3 3 3 2 1 1 2 2 2 2
8 5 3 4 3 4 4 5 5 6 6 4 6 11 7 5 4 5 7 8 9 10 10 7 5 4 4 4 5 5 5 5 5 5 4 3 3 2 1 1 1 2 2 1
6 4 3 3 5 6 6 6 5 3 3 5 3 8 10 6 5 6 7 8 9 9 8 7 7 6 5 5 4 5 5 5 5 5 5 5 3 2 2 1 0 1 2 2
6 4 5 6 7 9 6 1 2 0 1 4 2 4 12 4 7 8 8 9 9 9 10 10 9 7 6 5 5 5 5 5 4 4 5 5 3 2 1 1 0 1 2 2
5 3 5 6 2 5 4 5 4 5 3 4 4 5 11 5 7 7 5 8 9 9 9 8 6 6 5 5 5 5 5 4 4 4 5 5 5 4 3 1 0 1 1 1
3 3 3 4 5 3 4 5 4 5 2 7 2 4 13 9 7 7 8 7 9 9 9 9 9 8 7 7 6 6 6 5 4 4 4 4 5 4 4 2 2 1 1 1
5 6 5 5 7 7 6 8 7 4 4 6 2 8 12 8 6 6 7 6 6 9 10 11 11 10 9 9 8 7 7 5 5 5 4 3 4 3 2 2 2 2 2 2
8 7 2 3 3 10 6 5 6 5 2 4 7 9 13 5 5 4 3 2 6 9 10 10 9 9 9 9 9 8 8 6 5 5 4 4 3 3 3 2 2 2 3 3
9 4 2 1 4 2 6 8 5 5 3 5 7 6 7 7 6 5 4 4 5 6 8 8 9 9 8 8 7 6 7 7 5 5 4 3 3 3 3 2 3 3 3 3
6 5 1 2 7 9 5 4 5 4 4 5 5 9 8 7 6 6 7 6 6 7 9 9 8 7 7 6 6 7 6 6 5 5 4 4 3 3 3 3 4 4 4 4
6 6 4 7 4 5 7 8 9 6 6 5 4 11 7 6 7 7 8 6 5 6 6 7 7 7 7 8 7 7 7 6 6 5 4 4 3 3 3 4 4 4 5 5
9 7 3 3 2 1 3 5 6 5 4 6 6 11 5 3 5 5 6 6 4 4 5 5 6 8 9 8 8 7 7 6 5 5 4 3 3 3 4 5 4 4 5 5
8 6 8 10 7 7 5 6 7 7 6 7 11 13 12 9 9 8 7 6 5 4 5 6 7 8 8 8 8 7 6 6 5 4 4 4 4 5 5 4 4 5 5 5
7 6 6 6 4 5 7 8 9 11 11 12 11 13 18 11 9 8 7 5 4 5 6 7 8 7 7 7 7 7 6 5 5 5 4 5 4 4 4 4 5 5 5 6
5 5 4 3 3 5 6 9 10 12 10 11 11 16 14 7 5 6 7 6 6 7 7 7 7 7 8 8 8 7 6 6 5 5 5 4 3 4 4 5 5 5 6 6
6 7 5 4 2 1 8 11 12 9 10 10 14 16 8 5 7 7 7 6 7 7 6 6 7 8 8 8 8 7 6 5 5 4 4 3 3 4 5 5 5 6 6 6
9 7 5 3 2 9 10 4 8 9 10 11 10 9 7 7 5 4 5 6 6 5 5 5 5 5 5 5 5 5 4 4 4 4 3 4 4 5 5 5 6 7 6 6
5 8 6 5 5 9 10 6 7 8 10 9 12 11 6 2 1 4 4 4 5 4 3 3 4 4 5 5 5 5 4 3 3 4 4 4 4 5 5 6 7 7 6 7
4 5 6 5 5 9 10 4 4 4 8 6 8 8 5 5 1 5 1 2 2 2 2 3 3 4 5 4 5 5 4 3 4 5 4 4 4 5 6 7 7 6 6 8
4 3 5 6 7 10 9 3 6 5 9 3 5 6 8 8 6 3 2 2 2 3 3 4 4 4 3 4 4 4 3 4 4 3 3 4 5 5 6 6 6 7 7 8
10 8 7 6 6 12 6 8 10 10 3 3 4 5 7 6 3 2 2 3 3 3 3 4 4 3 2 3 3 3 3 3 3 3 4 5 5 6 6 6 7 7 7 9
9 11 9 12 11 6 7 9 6 4 4 4 4 4 6 5 5 4 3 3 3 3 3 3 4 3 1 2 3 3 3 2 2 3 5 5 6 6 6 6 8 7 6 7
6 3 5 6 9 7 7 6 5 5 5 4 4 4 6 6 5 5 4 4 3 3 3 2 3 2 1 2 2 3 3 3 3 4 5 5 6 6 6 6 6 7 7 7
7 7 5 7 7 5 7 9 8 6 4 3 3 4 5 6 5 5 4 4 3 3 2 2 2 2 2 2 3 3 3 3 4 5 6 6 6 7 7 7 7 8 8 9
7 10 10 10 9 8 6 4 5 6 6 6 5 3 3 5 5 4 4 3 3 3 2 2 2 2 3 3 4 4 3 3 4 5 6 5 5 6 6 7 9 13 15 20
Wind_Direction
74 96 203 214 201 198 197 232 265 266 271 249 254 263 270 251 222 226 222 215 215 216 211 168 138 124 112 113 126 135 134 138 135 126 125 121 116 98 78 69 65 62 58 61
62 243 228 200 174 179 202 255 273 285 290 245 278 276 268 246 223 218 211 210 207 202 192 184 163 142 133 134 136 137 140 142 143 136 130 126 126 117 105 65 50 49 53 48
191 229 177 157 174 190 220 219 243 268 319 332 324 300 289 279 245 233 216 209 202 196 192 187 178 172 153 151 156 150 145 140 135 126 111 93 80 70 63 49 29 13 25 33
224 243 170 180 203 179 248 234 224 262 322 301 359 301 290 284 288 250 228 213 206 199 189 185 182 180 177 173 157 145 141 136 136 136 138 139 143 155 178 170 150 351 12 18
230 202 181 204 215 179 215 104 134 309 223 300 290 246 283 310 285 264 235 220 211 200 190 188 187 182 175 165 157 148 138 135 139 141 144 137 134 145 145 130 70 4 356 359
233 223 197 204 186 166 137 74 55 49 69 284 240 203 279 258 244 273 258 224 211 197 191 187 179 166 164 160 155 150 144 144 145 142 142 144 147 150 146 151 161 330 326 325
262 253 220 154 113 95 110 92 4 339 343 257 228 217 255 257 248 251 264 244 210 193 185 182 179 178 176 174 171 164 157 157 157 149 150 156 158 160 168 182 198 237 276 282
193 259 217 189 170 168 172 151 171 224 249 287 273 240 257 265 278 273 264 245 199 190 190 191 189 185 183 180 175 171 169 166 165 161 161 158 156 158 173 187 196 217 232 249
182 237 263 187 169 142 146 192 168 146 229 273 275 284 298 288 301 304 295 234 205 198 195 195 190 187 184 182 182 178 172 169 172 170 161 161 163 169 185 199 206 225 240 254
159 207 251 147 96 58 151 147 119 146 206 262 284 276 262 294 301 310 296 262 234 208 200 197 193 190 187 184 179 174 174 175 173 170 171 171 178 185 190 197 224 239 250 254
145 164 202 151 190 181 140 150 147 148 171 187 265 270 232 242 271 282 277 261 236 215 205 200 195 187 179 173 172 176 178 173 174 176 175 173 186 191 196 216 235 243 252 257
153 137 207 237 230 185 176 178 154 168 217 195 211 267 265 249 269 268 270 264 242 221 208 196 186 175 176 179 179 182 182 182 184 178 175 184 191 197 215 237 247 249 256 260
149 140 140 328 337 169 208 200 185 149 143 176 199 262 285 288 285 268 261 263 247 221 204 189 182 184 187 187 185 185 187 188 181 172 175 188 203 215 231 244 252 255 259 266
136 146 175 195 210 184 198 204 180 161 191 217 224 251 276 278 280 281 271 260 244 224 206 194 194 195 192 188 186 186 189 183 175 173 181 200 216 223 235 247 255 259 260 265
140 184 210 223 209 176 201 205 189 199 209 218 237 240 257 257 251 257 260 253 241 232 214 204 201 196 189 186 186 185 185 181 175 177 194 214 223 231 242 252 259 263 263 266
147 172 179 243 229 212 237 236 216 219 225 234 253 263 258 261 250 258 255 240 236 233 223 211 201 191 190 190 189 185 185 182 174 186 207 218 226 240 250 256 262 267 270 271
157 143 150 237 269 358 258 227 215 215 213 203 230 248 262 258 251 250 251 239 232 233 224 209 201 197 195 192 185 185 184 171 176 195 213 224 233 247 256 263 269 270 271 271
148 143 146 161 128 236 243 222 206 220 238 219 234 251 251 244 254 257 242 229 234 227 219 210 195 189 183 171 166 160 155 167 182 201 223 236 239 251 261 266 268 270 269 270
144 141 137 152 211 268 288 254 195 203 257 225 225 246 250 230 310 289 244 214 214 210 201 191 179 166 153 155 153 146 155 169 189 215 232 241 243 254 264 267 269 271 272 274
75 114 132 152 193 238 247 235 165 134 275 248 203 223 206 146 210 266 238 159 158 143 139 140 132 127 138 146 142 147 167 185 216 229 239 248 249 254 261 264 269 270 269 276
129 133 160 179 218 255 250 184 130 182 244 238 188 198 176 189 207 210 137 124 123 118 118 122 123 127 143 142 140 158 186 219 232 242 253 259 257 257 261 264 266 272 277 281
170 169 185 167 202 250 213 150 186 216 218 189 189 188 186 202 189 162 157 143 129 120 116 123 124 126 132 140 147 180 227 239 245 253 261 264 264 267 274 269 274 274 277 283
196 189 185 191 212 232 181 200 217 189 197 202 193 195 176 182 194 184 170 159 149 143 137 131 133 132 140 162 171 207 241 249 258 265 267 268 270 266 266 267 275 279 273 277
233 178 168 230 254 244 230 235 239 212 212 212 194 181 172 183 184 177 169 164 159 153 147 137 135 153 212 223 222 229 250 259 259 266 271 273 273 274 269 266 268 272 275 276
199 166 189 238 261 281 260 228 224 218 205 197 190 184 182 173 176 174 173 175 171 159 152 152 170 204 240 256 264 263 259 258 266 269 273 275 272 272 275 269 262 270 260 264
184 177 184 221 219 203 232 224 192 187 199 191 175 168 164 167 167 157 165 167 161 161 157 168 204 233 256 268 276 277 269 260 264 277 276 274 275 275 276 282 286 277 277 285